sat.trackr.live / text

‹ back to catalog

STARLINK-31569

NORAD 59857 · 2024-097Y

PAYLOAD ACTIVE UNKNOWN

§ Identity

Operator
Country
US
Launch date
2024-05-23
Launch site
AFETR
Launch vehicle
Mass (kg)
RCS (m²)

Purposes: comms

External: N2YO · Heavens-Above · Gunter

§ Orbital elements

Epoch: 2026-05-25T04:13:47.987040Z

Period
94.27 min
Inclination
42.9992°
Eccentricity
0.0001137
Mean motion
15.27596529 rev/d
Perigee alt
482.2 km
Apogee alt
483.8 km
Semi-major
6,861.1 km
B*
2.0510e-4
RAAN
202.4682°
Arg perigee
268.7119°
Mean anomaly
91.3602°
Rev number
11,361

§ Raw data

STARLINK-315691 59857U 24097Y   26145.17624985  .00005389  00000+0  20510-3 0  99912 59857  42.9992 202.4682 0001137 268.7119  91.3602 15.27596529113615

JSON: /api/v1/satellites/59857 · /tle

For live sub-satellite position, see the globe view (requires WebGL).

§ Visibility from observer

Set your observer location to see the next 7 days of passes ≥ 10°. The values pass through the URL so the page stays shareable.

No JS? Fill the form by hand. The geolocation button needs JavaScript.